• In Czech Republic
  • List of Countries
  • For 7 days
  • Water Temperature
  • Satellite Maps
  • Weather Map
  • Weather Widgets
  • user-avatar
    Login

    Hourly Weather Denver

    Today, 16 October, Tuesday

    Time Temperature Precipitation Wind Pressure Humidity
    00:00 -3°C° 0 mm 2 mps 631 mmHg 59%
    01:00 -3°C° 0 mm 2 mps 631 mmHg 58%
    02:00 -3°C° 0 mm 2 mps 631 mmHg 57%
    03:00 -2°C° 0 mm 2 mps 631 mmHg 56%
    04:00 -2°C° 0 mm 2 mps 631 mmHg 56%
    05:00 -2°C° 0 mm 2 mps 632 mmHg 55%
    06:00 +1°C° 0 mm 2 mps 632 mmHg 53%
    07:00 +2°C° 0 mm 2 mps 633 mmHg 51%
    08:00 +5°C° 0 mm 1 mps 633 mmHg 49%
    09:00 +7°C° 0 mm 1 mps 633 mmHg 47%
    10:00 +9°C° 0 mm 1 mps 633 mmHg 45%
    11:00 +10°C° 0 mm 1 mps 633 mmHg 42%
    12:00 +10°C° 0 mm 2 mps 633 mmHg 43%
    13:00 +10°C° 0 mm 2 mps 633 mmHg 43%
    14:00 +12°C° 0 mm 2 mps 632 mmHg 43%
    15:00 +9°C° 0 mm 2 mps 632 mmHg 50%
    16:00 +8°C° 0 mm 1 mps 631 mmHg 57%
    17:00 +7°C° 0 mm 1 mps 631 mmHg 63%
    18:00 +6°C° 0 mm 1 mps 631 mmHg 67%
    19:00 +4°C° 0 mm 1 mps 631 mmHg 70%
    20:00 +3°C° 0 mm 1 mps 632 mmHg 73%
    21:00 +3°C° 0 mm 1 mps 632 mmHg 73%
    22:00 +3°C° 0 mm 1 mps 632 mmHg 73%
    23:00 +3°C° 0 mm 1 mps 633 mmHg 73%

    Tomorrow, 17 October, Wednesday

    Time Temperature Precipitation Wind Pressure Humidity
    00:00 +3°C° 0 mm 1 mps 633 mmHg 73%
    01:00 +2°C° 0 mm 1 mps 632 mmHg 73%
    02:00 +2°C° 0 mm 1 mps 632 mmHg 74%
    03:00 +2°C° 0 mm 1 mps 632 mmHg 74%
    04:00 +2°C° 0 mm 1 mps 632 mmHg 75%
    05:00 +2°C° 0 mm 1 mps 632 mmHg 75%
    06:00 +4°C° 0 mm 1 mps 633 mmHg 68%
    07:00 +5°C° 0 mm 1 mps 633 mmHg 62%
    08:00 +7°C° 0 mm 1 mps 634 mmHg 55%
    09:00 +8°C° 0 mm 2 mps 634 mmHg 52%
    10:00 +10°C° 0 mm 2 mps 634 mmHg 49%
    11:00 +11°C° 0 mm 3 mps 634 mmHg 45%
    12:00 +12°C° 0 mm 4 mps 634 mmHg 45%
    13:00 +13°C° 0 mm 4 mps 634 mmHg 44%
    14:00 +13°C° 0 mm 5 mps 633 mmHg 44%
    15:00 +12°C° 0 mm 4 mps 633 mmHg 49%
    16:00 +11°C° 0 mm 4 mps 632 mmHg 53%
    17:00 +8°C° 0 mm 4 mps 632 mmHg 58%
    18:00 +7°C° 0 mm 4 mps 632 mmHg 62%
    19:00 +6°C° 0 mm 4 mps 632 mmHg 66%
    20:00 +5°C° 0 mm 4 mps 632 mmHg 69%
    21:00 +5°C° 0 mm 4 mps 631 mmHg 70%
    22:00 +4°C° 0 mm 4 mps 631 mmHg 71%
    23:00 +4°C° 0 mm 4 mps 631 mmHg 72%

    Day after tomorrow, 18 October, Thursday

    Time Temperature Precipitation Wind Pressure Humidity
    00:00 +4°C° 0 mm 4 mps 631 mmHg 73%
    01:00 +4°C° 0 mm 4 mps 630 mmHg 74%
    02:00 +3°C° 0 mm 3 mps 630 mmHg 74%
    03:00 +3°C° 0 mm 3 mps 630 mmHg 74%
    04:00 +3°C° 0 mm 3 mps 629 mmHg 75%
    05:00 +3°C° 0 mm 3 mps 629 mmHg 75%
    06:00 +4°C° 0 mm 3 mps 630 mmHg 68%
    07:00 +7°C° 0 mm 2 mps 630 mmHg 62%
    08:00 +9°C° 0 mm 2 mps 631 mmHg 55%
    09:00 +12°C° 0 mm 2 mps 631 mmHg 49%
    10:00 +14°C° 0 mm 2 mps 631 mmHg 43%
    11:00 +16°C° 0 mm 1 mps 631 mmHg 36%
    12:00 +16°C° 0 mm 2 mps 630 mmHg 34%
    13:00 +17°C° 0 mm 2 mps 630 mmHg 33%
    14:00 +18°C° 0 mm 2 mps 629 mmHg 31%
    15:00 +16°C° 0.1 mm 2 mps 629 mmHg 36%
    16:00 +15°C° 0.1 mm 2 mps 628 mmHg 41%
    17:00 +13°C° 0.1 mm 2 mps 628 mmHg 46%
    18:00 +12°C° 0 mm 2 mps 628 mmHg 50%
    19:00 +10°C° 0 mm 2 mps 628 mmHg 54%
    20:00 +8°C° 0 mm 2 mps 628 mmHg 57%
    21:00 +8°C° 0 mm 2 mps 628 mmHg 58%
    22:00 +8°C° 0 mm 3 mps 629 mmHg 59%
    23:00 +7°C° 0 mm 3 mps 629 mmHg 60%

    19 October, Friday

    Time Temperature Precipitation Wind Pressure Humidity
    00:00 +7°C° 0 mm 3 mps 629 mmHg 60%
    01:00 +7°C° 0 mm 3 mps 629 mmHg 60%
    02:00 +7°C° 0 mm 3 mps 629 mmHg 60%
    03:00 +5°C° 0 mm 3 mps 629 mmHg 60%
    04:00 +5°C° 0 mm 3 mps 630 mmHg 60%
    05:00 +5°C° 0 mm 3 mps 630 mmHg 60%
    06:00 +7°C° 0 mm 3 mps 631 mmHg 56%
    07:00 +9°C° 0 mm 2 mps 632 mmHg 51%
    08:00 +10°C° 0 mm 2 mps 633 mmHg 47%
    09:00 +13°C° 0 mm 2 mps 633 mmHg 41%
    10:00 +15°C° 0 mm 2 mps 634 mmHg 36%
    11:00 +17°C° 0 mm 2 mps 634 mmHg 30%
    12:00 +18°C° 0 mm 2 mps 634 mmHg 29%
    13:00 +18°C° 0 mm 2 mps 634 mmHg 28%
    14:00 +18°C° 0 mm 2 mps 633 mmHg 27%
    15:00 +17°C° 0 mm 2 mps 633 mmHg 32%
    16:00 +15°C° 0 mm 2 mps 633 mmHg 36%
    17:00 +13°C° 0 mm 2 mps 633 mmHg 40%
    18:00 +12°C° 0 mm 2 mps 633 mmHg 43%
    19:00 +10°C° 0 mm 1 mps 633 mmHg 46%
    20:00 +9°C° 0 mm 1 mps 633 mmHg 49%
    21:00 +8°C° 0 mm 1 mps 633 mmHg 51%
    22:00 +8°C° 0 mm 1 mps 633 mmHg 53%
    23:00 +7°C° 0 mm 1 mps 633 mmHg 54%

    20 October, Saturday

    Time Temperature Precipitation Wind Pressure Humidity
    00:00 +7°C° 0 mm 1 mps 633 mmHg 55%
    01:00 +7°C° 0 mm 1 mps 633 mmHg 55%
    02:00 +5°C° 0 mm 2 mps 633 mmHg 55%
    03:00 +5°C° 0 mm 2 mps 633 mmHg 56%
    04:00 +5°C° 0 mm 2 mps 633 mmHg 56%
    05:00 +5°C° 0 mm 2 mps 633 mmHg 57%
    06:00 +7°C° 0 mm 2 mps 634 mmHg 51%
    07:00 +9°C° 0 mm 1 mps 634 mmHg 46%
    08:00 +11°C° 0 mm 1 mps 635 mmHg 41%
    09:00 +13°C° 0 mm 1 mps 635 mmHg 36%
    10:00 +15°C° 0 mm 1 mps 636 mmHg 32%
    11:00 +18°C° 0 mm 1 mps 636 mmHg 27%
    12:00 +19°C° 0 mm 1 mps 635 mmHg 26%
    13:00 +18°C° 0 mm 2 mps 635 mmHg 25%
    14:00 +19°C° 0 mm 2 mps 635 mmHg 24%
    15:00 +17°C° 0 mm 2 mps 634 mmHg 28%
    16:00 +16°C° 0 mm 2 mps 634 mmHg 33%
    17:00 +14°C° 0 mm 2 mps 633 mmHg 37%
    18:00 +13°C° 0 mm 2 mps 633 mmHg 40%
    19:00 +12°C° 0 mm 2 mps 633 mmHg 42%
    20:00 +9°C° 0 mm 2 mps 633 mmHg 45%
    21:00 +9°C° 0 mm 2 mps 633 mmHg 46%
    22:00 +9°C° 0 mm 2 mps 633 mmHg 47%
    23:00 +8°C° 0 mm 2 mps 632 mmHg 48%

    21 October, Sunday

    Time Temperature Precipitation Wind Pressure Humidity
    00:00 +8°C° 0 mm 2 mps 632 mmHg 49%
    01:00 +8°C° 0 mm 2 mps 632 mmHg 49%
    02:00 +8°C° 0 mm 2 mps 632 mmHg 49%
    03:00 +7°C° 0 mm 2 mps 632 mmHg 49%
    04:00 +7°C° 0 mm 2 mps 631 mmHg 49%
    05:00 +7°C° 0 mm 2 mps 631 mmHg 49%
    06:00 +9°C° 0 mm 2 mps 632 mmHg 44%
    07:00 +12°C° 0 mm 2 mps 633 mmHg 40%
    08:00 +13°C° 0 mm 2 mps 633 mmHg 36%
    09:00 +16°C° 0 mm 1 mps 633 mmHg 31%
    10:00 +19°C° 0 mm 1 mps 633 mmHg 26%
    11:00 +20°C° 0 mm 0 mps 633 mmHg 22%
    12:00 +22°C° 0 mm 1 mps 633 mmHg 21%
    13:00 +23°C° 0 mm 1 mps 632 mmHg 20%
    14:00 +23°C° 0 mm 1 mps 632 mmHg 19%
    15:00 +21°C° 0 mm 1 mps 631 mmHg 24%
    16:00 +19°C° 0 mm 1 mps 630 mmHg 28%
    17:00 +16°C° 0 mm 1 mps 629 mmHg 33%
    18:00 +15°C° 0 mm 1 mps 629 mmHg 35%
    19:00 +13°C° 0 mm 2 mps 629 mmHg 37%
    20:00 +12°C° 0 mm 2 mps 629 mmHg 39%
    21:00 +12°C° 0 mm 2 mps 629 mmHg 40%
    22:00 +10°C° 0 mm 2 mps 629 mmHg 41%
    23:00 +10°C° 0 mm 2 mps 629 mmHg 42%
    Show more